Location: Aveley
(51.4833°N, 0.2500°E)
Time: 20:28:11
(UTC+00:00)

Daily predictions for brighter satellites

Satellite Brightness Start Highest point End
(mag) Time Altitude Azimuth Time Altitude Azimuth Time Altitude Azimuth
Meteor 1-21 4.3 18:41:50 10° N 18:47:23 57° ENE 18:52:57 10° SSE
COSMO-SKYMED 1 3.6 18:45:11 10° N 18:49:27 54° WNW 18:53:41 10° SSW
USA 229 DEB 4.2 18:44:38 10° WSW 18:50:58 62° NW 18:57:56 10° NE
USA 229 4.2 18:44:43 10° WSW 18:51:03 63° NW 18:58:01 10° NE
Cosmos 1707 2.6 18:48:51 10° N 18:52:42 78° E 18:56:28 10° SSE
Cosmos 2322 3.8 18:47:46 10° NNW 18:53:29 90° ENE 18:59:09 10° SSE
Okean 1-7 3.0 18:49:45 10° N 18:54:09 73° ENE 18:58:29 10° SSE
Cosmos 1954 Rocket 4.1 18:49:27 10° NNW 18:54:42 84° WSW 18:59:58 10° SSE
CZ-4B R/B 3.4 18:49:10 10° SSE 18:54:51 90° ENE 19:00:31 10° NNW
Cosmos 1727 Rocket 4.0 18:49:55 10° S 18:56:14 81° E 19:02:32 10° NNE
Cosmos 1674 2.6 18:53:21 10° N 18:57:05 70° ENE 19:00:48 10° SSE
Cosmos 1980 4.3 18:53:18 10° NNW 18:58:41 41° NE 19:04:02 10° ESE
Cosmos 1805 4.5 18:56:15 10° SE 18:59:07 21° E 19:02:01 10° NE
Cosmos 2219 Rocket 2.6 18:54:26 10° NW 19:00:06 68° WSW 19:05:44 10° SSE
Cosmos 2333 Rocket 3.4 18:56:29 10° NW 19:02:01 47° WSW 19:07:29 10° S
Cosmos 1933 Rocket 3.6 18:59:05 10° S 19:03:19 57° E 19:07:35 10° NNE
Cosmos 1975 3.1 18:59:39 10° SSE 19:03:24 43° E 19:07:12 10° NNE
SJ-6B 2.9 19:00:23 10° SSE 19:04:12 55° ENE 19:07:59 10° N
CZ-4C R/B 4.1 19:00:43 10° N 19:04:24 56° WNW 19:08:15 10° SSW
Cosmos 2233 Rocket 4.5 19:01:04 10° N 19:06:48 39° ENE 19:12:31 10° SE
Meteor 2-9 Rocket 4.1 19:01:57 10° S 19:07:27 88° E 19:12:51 10° NNE
Cosmos 1726 3.1 19:05:43 10° SE 19:08:31 23° E 19:11:21 10° NE
CSL-04 Debris 4.3 19:04:30 10° SSE 19:09:49 60° ENE 19:15:11 10° N
BREEZE-M DEB (TANK) 4.2 19:06:43 10° W 19:10:41 21° SW 19:12:54 10° S
Cosmos 2061 Rocket 4.3 19:04:46 10° N 19:11:05 52° ENE 19:17:19 10° SSE
USA 267 4.4 19:05:31 10° SSE 19:11:38 41° SW 19:17:47 10° WNW
Cosmos 1869 Rocket 4.0 19:09:00 10° SSE 19:12:59 38° E 19:17:01 10° NNE
COSMOS 2428 2.8 19:07:28 10° NNW 19:13:14 85° WSW 19:18:59 10° SSE
SL-14 R/B 3.8 19:11:59 10° N 19:15:36 37° ENE 19:19:11 10° SE
Cosmos 1459 Rocket 4.0 19:12:17 10° N 19:18:22 86° W 19:24:27 10° S
USA 281 3.4 19:13:58 10° NNE 19:20:34 80° WNW 19:27:08 10° SW
NOSS 3-2 (A) 4.2 19:13:25 10° NW 19:20:44 81° SW 19:29:19 10° SE
Cosmos 2297 Rocket 3.2 19:16:53 10° SSE 19:21:12 23° ESE 19:25:33 10° NE
ATLAS 3B R/B 4.2 19:15:05 10° WNW 19:21:27 32° N 19:28:08 10° NE
Cosmos 1867 4.3 19:19:47 10° S 19:24:28 30° ESE 19:29:11 10° ENE
IGS 5A 3.9 19:23:14 10° S 19:27:19 63° WSW 19:31:26 10° NNW
Cosmos 1725 Rocket 3.9 19:22:01 10° N 19:28:14 75° E 19:34:25 10° SSE
MINOTAUR 4 R/B 4.0 19:25:46 10° NNE 19:29:12 80° WNW 19:32:36 10° SSW
Resurs 01 Rocket 2.2 19:25:55 14° SE 19:29:22 38° ENE 19:33:28 10° N
JB-3 4.5 19:26:00 10° N 19:30:01 80° WNW 19:34:07 10° SSW
CZ-4C R/B 3.6 19:24:42 10° NW 19:30:37 37° NNE 19:36:50 13° E
Cosmos 1371 Rocket 4.3 19:25:40 10° SSW 19:30:56 71° WNW 19:36:11 10° NNE
CENTAUR R/B 3.5 19:23:08 10° NW 19:31:12 72° SW 19:40:10 10° SSE
NOSS 3-2 (C) 4.0 19:24:03 10° NW 19:31:17 79° NE 19:38:47 14° SE
Cosmos 1626 3.7 19:28:39 10° NNW 19:31:57 36° W 19:35:14 10° SSW
Cosmos 1733 3.2 19:29:22 10° S 19:33:04 56° E 19:36:46 10° NNE
Landsat 7 3.8 19:29:28 10° SSE 19:34:11 89° WSW 19:38:57 10° NNW
Cosmos 1271 Rocket 4.4 19:36:59 16° ENE 19:36:59 16° ENE 19:38:31 10° NE
Cosmos 1703 Rocket 4.4 19:32:03 10° NNW 19:36:24 53° W 19:40:42 10° S
Cosmos 2227 Rocket 3.4 19:35:02 16° SE 19:37:07 19° E 19:41:01 10° NE
CZ-4 R/B 2.8 19:34:45 10° SSW 19:38:19 37° W 19:41:58 10° NNW
Cosmos 2056 Rocket 3.9 19:34:16 10° SW 19:39:20 64° WNW 19:44:27 10° NNE
Iridium 4 Rocket 2.8 19:37:51 10° N 19:42:05 81° E 19:46:14 10° S
Cosmos 192 4.3 19:38:05 10° S 19:42:57 60° ESE 19:47:51 10° NNE
Cosmos 2098 Rocket 3.8 19:37:50 10° S 19:43:17 83° E 19:49:54 10° N
Terra 3.6 19:42:45 14° ENE 19:43:57 15° NE 19:46:33 10° NNE
Cosmos 1802 Rocket 4.3 19:38:29 10° NNW 19:44:42 71° W 19:50:59 10° S
Geosat 4.0 19:40:51 15° SE 19:44:57 77° NE 19:50:01 10° NNW
USA 238 DEB 3.9 19:37:45 10° NW 19:44:58 78° NE 19:50:50 19° SE
USA 238 3.9 19:37:51 10° NW 19:45:04 78° NE 19:50:55 19° SE
SL-16 R/B 3.1 19:41:29 10° NNW 19:46:39 34° NE 19:49:39 21° E
Resurs 1-3 3.7 19:42:18 10° S 19:46:40 76° WSW 19:51:04 10° NNW
Cosmos 1674 Rocket 4.3 19:47:27 10° N 19:51:25 32° ENE 19:52:41 27° ESE
Cosmos 1850 Rocket 4.1 19:46:55 10° NNW 19:52:16 79° WSW 19:57:17 12° SSE
Meteor 2-10 3.8 19:49:24 10° S 19:54:25 79° E 19:59:32 10° NNE
Cosmos 1733 Rocket 3.5 19:53:01 22° SE 19:55:11 38° E 19:59:11 10° NNE
Okean-O 2.7 19:52:29 10° SSE 19:56:55 82° WSW 20:01:22 10° NNW
Okean 2 3.6 19:53:43 10° NNW 19:57:46 69° W 20:01:48 10° S
Cosmos 2016 Rocket 4.3 19:51:57 10° NNW 19:58:00 67° W 20:04:04 10° S
NOSS 0 Rocket 4.3 19:53:04 10° NW 19:59:12 64° WSW 20:05:06 11° SSE
CARTOSAT-1 3.8 19:58:45 30° SE 20:00:29 47° ENE 20:04:38 10° N
SPOT 1/Viking Rocket 3.5 19:55:57 13° SSE 20:00:39 83° ENE 20:05:55 10° NNW
Cosmos 1110 Rocket 4.0 19:56:47 10° S 20:01:51 55° ESE 20:06:55 10° NNE
Cosmos 1378 Rocket 4.0 19:58:30 10° N 20:02:43 43° ENE 20:04:03 33° ESE
SPOT 5 3.8 20:02:23 26° E 20:03:28 28° ENE 20:07:35 10° N
Cosmos 2221 Rocket 3.8 19:59:28 10° N 20:03:49 50° ENE 20:05:26 33° SE
Cosmos 2123 Rocket 4.2 19:57:35 10° SSW 20:03:53 77° W 20:10:16 10° N
Okean O Rocket 3.6 20:01:36 10° SSW 20:05:24 28° W 20:09:14 10° NW
Helios 1B 4.5 20:01:27 10° NNE 20:05:49 84° ESE 20:10:09 10° SSW
BREEZE-M DEB (TANK) 2.8 20:01:50 10° W 20:07:38 62° SSW 20:08:22 45° SE
ISS -3.8 20:04:38 10° W 20:08:00 85° N 20:08:42 53° E
GEOS 3 Rocket 4.1 20:03:05 10° NE 20:08:25 63° NW 20:13:45 10° WSW
CSL-04 Rocket 4.5 20:08:19 10° S 20:13:44 53° W 20:19:10 10° NNW
Cosmos 1447 Rocket 4.4 20:10:42 10° S 20:16:50 65° E 20:22:57 10° NNE
Cosmos 1452 Rocket 3.5 20:11:36 10° SSW 20:16:53 89° WNW 20:22:13 10° NNE
USA 215 3.7 20:10:32 10° ENE 20:16:57 61° NNW 20:23:22 10° W
USA 186 4.2 20:15:00 10° SSW 20:17:28 22° W 20:19:58 10° NW
ADEOS Rocket 4.0 20:15:26 27° E 20:17:56 37° ENE 20:24:17 10° N
Cosmos 1766 3.1 20:17:38 46° SSE 20:18:33 64° E 20:22:19 10° NNE
Cosmos 1331 Rocket 3.8 20:13:42 10° SSW 20:18:48 69° ESE 20:23:57 10° NNE
Cosmos 2237 Rocket 2.5 20:16:02 10° NW 20:21:38 66° WSW 20:25:11 23° S
H-2A R/B 2.9 20:23:55 45° E 20:24:34 49° ENE 20:28:53 10° N
MetOp-B 4.1 20:29:53 38° SE 20:31:57 73° ENE 20:37:20 10° NNW
ATLAS CENTAUR R/B 4.1 20:17:02 10° SW 20:32:52 80° SE 20:40:04 10° ENE
Cosmos 968 Rocket 3.5 20:30:19 10° NNW 20:35:31 80° WSW 20:37:26 39° SSE
Lacrosse 5 rocket 2.5 20:32:07 10° SW 20:34:34 30° SSW 20:34:34 30° SSW
SJ 16-02 2.4 20:32:27 10° N 20:36:14 30° NE 20:36:14 30° NE
Meteor 1-12 Rocket 4.2 20:38:17 36° SSE 20:40:31 61° E 20:46:10 10° NNE
Cosmos 1975 Rocket 4.5 20:37:00 10° N 20:39:54 25° NE 20:39:54 25° NE
FALCON 9 R/B 4.2 20:25:07 10° WSW 20:41:59 31° SSW 20:45:16 24° SSE
Cosmos 1726 4.0 20:39:55 10° SW 20:43:01 29° WNW 20:46:10 10° N
ERS-1 Rocket 3.2 20:44:49 49° E 20:45:12 50° ENE 20:50:04 10° N
Cosmos 1513 Rocket 4.3 20:39:22 10° N 20:45:29 79° E 20:47:45 41° SSE
Meteor 1-24 Rocket 3.8 20:39:44 10° N 20:45:39 68° ENE 20:47:15 48° SE
Meteor 2-15 4.3 20:43:38 10° N 20:49:49 78° ENE 20:51:48 46° SSE
BREEZE-M DEB (TANK) 3.0 20:43:27 10° WNW 20:49:57 70° SSW 20:50:42 57° SSE
Landsat 5 4.1 20:46:38 10° N 20:50:22 50° WNW 20:53:40 13° SW
Ariane Rocket 2.9 20:49:52 56° SSE 20:50:58 86° ENE 20:56:04 10° NNW
Meteor 2-8 Rocket 4.3 20:45:27 10° N 20:51:37 74° ENE 20:53:21 49° SSE
Spot 2 4.3 20:51:12 63° ESE 20:51:43 69° ENE 20:56:35 10° N
Cosmos 482 Debris 4.3 20:48:05 10° WNW 20:52:59 75° WSW 20:52:59 75° WSW
Cosmos 1943 4.1 20:48:37 10° NNW 20:53:41 33° NE 20:54:31 32° ENE
Meteor 2-15 Rocket 4.4 20:49:34 10° N 20:55:44 68° ENE 20:57:02 54° SE
Spot 2 Rocket 3.4 21:01:35 66° E 21:01:48 67° ENE 21:06:54 10° N
Cosmos 1302 Rocket 3.8 21:02:14 60° S 21:03:12 79° ESE 21:08:31 10° NNE
Cosmos 2297 Rocket 2.4 20:59:04 10° SW 21:04:42 72° WNW 21:10:23 10° NNE
Resurs 01 Rocket 3.3 21:03:27 18° SW 21:05:56 29° W 21:09:49 10° NNW
Cosmos 2034 Rocket 3.9 21:00:49 10° N 21:07:01 68° ENE 21:07:51 61° ESE
Cosmos 1867 3.9 21:02:21 10° SW 21:07:45 64° NW 21:13:12 10° NE
Cosmos 1271 Rocket 3.7 21:11:48 45° NW 21:11:48 45° NW 21:15:07 10° N
Cosmos 2219 3.3 21:13:55 58° ENE 21:13:55 58° ENE 21:18:35 10° NNE
Meteor 2-5 Rocket 3.9 21:07:15 10° NNW 21:13:03 74° W 21:14:30 52° SSW
SPOT 3 Rocket 3.4 21:12:40 74° S 21:13:09 85° WSW 21:18:25 10° NNW
ATLAS 3B R/B 3.9 21:07:15 10° NW 21:14:08 39° NNE 21:17:41 26° ENE
Cosmos 1470 4.0 21:15:43 38° N 21:15:43 38° N 21:18:15 10° N
deb Chang Zheng 4 4.4 21:16:08 40° N 21:16:08 40° N 21:18:43 10° NNW
CZ-4C R/B 2.9 21:13:08 10° NW 21:20:04 81° NE 21:21:59 56° ESE
Cosmos 2227 Rocket 2.1 21:14:47 10° SSW 21:20:28 84° WNW 21:26:11 10° NNE
Terra 2.0 21:21:29 66° N 21:21:29 66° N 21:25:36 10° NNW
Cosmos 1503 Rocket 4.3 21:22:12 10° NNW 21:26:52 58° NNE 21:26:52 58° NNE
SL-16 R/B 2.5 21:25:31 10° NW 21:31:07 58° WSW 21:31:32 57° SW
Cosmos 1486 Rocket 4.2 21:33:20 10° NNW 21:38:14 70° WNW 21:38:14 70° WNW
SPOT 5 3.6 21:41:34 45° W 21:41:34 45° W 21:45:58 10° NNW
ISS -0.5 21:41:27 10° W 21:41:38 11° W 21:41:38 11° W
H-2A R/B 4.2 21:50:19 10° NNE 21:51:45 20° NNE 21:51:45 20° NNE
Cosmos 2279 Rocket 4.4 21:51:07 10° N 21:56:22 51° NE 21:56:22 51° NE
USA 215 3.6 21:57:51 46° ENE 21:59:33 58° N 22:05:57 10° WNW
ADEOS Rocket 3.5 22:02:22 54° SW 22:03:08 57° W 22:10:04 10° NNW
Cosmos 2263 Rocket 3.8 22:13:19 25° NE 22:13:19 25° NE 22:15:30 10° NNE
ARIANE 5 R/B 4.5 22:16:23 28° NNW 22:16:23 28° NNW 22:18:30 10° NNW
SJ 16-02 3.3 22:10:52 10° NW 22:13:07 26° WNW 22:13:07 26° WNW
ATLAS 2AS CENTAUR R/B 4.4 22:29:01 22° ENE 22:29:01 22° ENE 22:31:28 10° NE
Cosmos 1634 Rocket 4.4 22:27:37 10° NNW 22:33:09 57° WNW 22:33:09 57° WNW
Cosmos 1943 4.2 22:32:33 10° NW 22:36:19 41° WNW 22:36:19 41° WNW
NOSS 3-4 (A) 4.1 22:42:48 51° NNW 22:42:48 51° NNW 22:49:02 10° NE
NOSS 3-4 (C) 4.1 22:43:06 51° NNW 22:43:06 51° NNW 22:49:08 10° NE
ATLAS CENTAUR R/B 3.8 22:37:08 10° W 22:48:20 57° NNW 22:49:44 49° NNE
Terra 4.4 23:00:14 14° WNW 23:00:14 14° WNW 23:01:55 10° NW
Cosmos 2082 Rocket 4.4 22:57:30 10° N 23:01:03 17° NNE 23:02:28 15° NE
NOSS 3-1 (A) 4.5 22:56:18 10° NW 23:02:56 50° NNE 23:03:39 48° NE
Cosmos 2227 Rocket 4.3 23:00:54 10° W 23:05:23 23° NW 23:09:51 10° NNE
ATLAS 3B R/B 3.0 22:58:17 10° NW 23:04:56 71° NNW 23:04:56 71° NNW
CZ-4C R/B 4.0 23:01:55 10° NW 23:07:09 33° W 23:07:09 33° W
Cosmos 1833 Rocket 4.3 23:08:59 10° NNW 23:12:54 29° NNE 23:12:54 29° NNE
Cosmos 2344 3.9 23:10:11 10° NW 23:18:39 82° SW 23:18:50 82° SSW
USA 215 4.2 23:45:10 39° WNW 23:45:10 39° WNW 23:49:00 10° WNW
NOSS 3-1 (C) 4.4 23:43:01 10° NW 23:48:11 54° NW 23:48:11 54° NW
Cosmos 2263 Rocket 3.9 23:54:56 27° NNW 23:54:56 27° NNW 23:59:10 10° NNE
